This is the latest recevied weather packets stored in our database for station/object SQ5LTL-2. If no packets are shown the sender has not sent any weather packets the latest 10 day(s).
| Time | Temp. | Humidity | Pressure | Rain* | Wind** | Luminosity | Snow |
|---|---|---|---|---|---|---|---|
| 1778063132 | 25.56° C | 37% | 1006.6 hPa | 0 mm | - | 454 W/m² | - |
| 1778062831 | 25° C | 37% | 1006.7 hPa | 0 mm | - | 547 W/m² | - |
| 1778062529 | 25° C | 37% | 1006.8 hPa | 0 mm | - | 589 W/m² | - |
| 1778062228 | 25° C | 37% | 1006.7 hPa | 0 mm | - | 569 W/m² | - |
| 1778061926 | 25° C | 37% | 1006.7 hPa | 0 mm | - | 579 W/m² | - |
| 1778061626 | 24.44° C | 37% | 1006.9 hPa | 0 mm | - | 578 W/m² | - |
| 1778061324 | 25° C | 36% | 1006.9 hPa | 0 mm | - | 576 W/m² | - |
| 1778061023 | 25° C | 36% | 1006.9 hPa | 0 mm | - | 573 W/m² | - |
| 1778060720 | 25° C | 36% | 1006.8 hPa | 0 mm | - | 575 W/m² | - |
| 1778060419 | 25° C | 36% | 1006.7 hPa | 0 mm | - | 580 W/m² | - |
| 1778060117 | 25° C | 36% | 1006.7 hPa | 0 mm | - | 577 W/m² | - |
| 1778059816 | 23.89° C | 38% | 1006.8 hPa | 0 mm | - | 477 W/m² | - |
| 1778059535 | 23.89° C | 38% | 1006.8 hPa | 0 mm | - | 414 W/m² | - |
| 1778059233 | 24.44° C | 38% | 1006.8 hPa | 0 mm | - | 454 W/m² | - |
| 1778058932 | 23.89° C | 38% | 1006.8 hPa | 0 mm | - | 521 W/m² | - |
| 1778058630 | 23.89° C | 38% | 1006.6 hPa | 0 mm | - | 436 W/m² | - |
| 1778058329 | 23.89° C | 39% | 1006.7 hPa | 0 mm | - | 383 W/m² | - |
| 1778058027 | 23.33° C | 39% | 1006.8 hPa | 0 mm | - | 413 W/m² | - |
| 1778057726 | 23.89° C | 39% | 1006.7 hPa | 0 mm | - | 375 W/m² | - |
| 1778057424 | 23.89° C | 38% | 1006.6 hPa | 0 mm | - | 468 W/m² | - |
| 1778057123 | 23.33° C | 39% | 1006.6 hPa | 0 mm | - | 528 W/m² | - |
| 1778056821 | 23.33° C | 39% | 1006.6 hPa | 0 mm | - | 491 W/m² | - |
| 1778056520 | 23.33° C | 40% | 1006.6 hPa | 0 mm | - | 508 W/m² | - |
| 1778056219 | 23.33° C | 40% | 1006.8 hPa | 0 mm | - | 506 W/m² | - |
| 1778055917 | 22.78° C | 40% | 1006.8 hPa | 0 mm | - | 496 W/m² | - |
* Rain latest hour (hover to see other rain measurements)
** Current wind speed in m/s (hover to see current wind gust speed)